Location: Ravensburg
(48.5621°N, 13.4088°E)
Time: 07:39:05
(UTC+01:00)

ISS - Pass Details

Date: 13 November 2017
Orbit: 402 x 407 km, 51.6° (Epoch: 21 November)

Event Time Altitude Azimuth Distance (km) Brightness Sun altitude
Exits shadow 06:35:13 - 281° (W) 1,606 -1.5 -6.3°
Reaches altitude 10° 06:35:37 10° 278° (W) 1,456 -1.7 -6.3°
Maximum altitude 06:38:30 29° 216° (SW) 760 -2.6 -5.8°
Drops below altitude 10° 06:41:23 10° 153° (SSE) 1,449 -0.2 -5.4°
Sets 06:43:36 0° 142° (SE) 2,305 1.2 -5.0°
